www.pogodaiklimat.ru

Погода и климат >> Архив погоды >> Португалия >> Орта


ПОГОДА в Орте

  • Прогноз погоды в Орте
  • Монитор погоды в Орте

АРХИВ ПОГОДЫ в Орте

Время (UTC), дата Ветер
(напр.,м/с)
 
Видим.   Явления Облачность Т
(С)
Тd
(С)
f
(%)
Тe
(С)
Тes
(С)
Комфортность P
(гПа)
Po
(гПа)
Тmin
(С)
Tmax
(С)
R
(мм)
R24
(мм)
S
(см)
07 18.06 С 3
{5}
н/о н/о +16.2 +13.6 85 +16 +16 1015.6 1008.9
08 18.06 СВ 3
{5}
н/о н/о +18.1 +14.3 78 +18 +18 1015.9 1009.3
09 18.06 СВ 3-6
{6}
н/о н/о +18.7 +14.3 76 +20 +20 1016.4 1009.8
10 18.06 СВ 5 н/о н/о +18.3 +14.2 77 +18 +18 1016.8 1010.2
11 18.06 СВ 3-5
{7}
н/о н/о +19.0 +14.8 77 +20 +20 1017.0 1010.4
12 18.06 СВ 5 н/о н/о +18.6 +14.5 77 +19 +19 1017.3 1010.6
13 18.06 СВ 4-6
{6}
н/о н/о +18.8 +14.9 78 +20 +20 1017.3 1010.7
14 18.06
{7}
н/о н/о +19.7 +15.2 75 1016.6 1010.1
15 18.06 нст 1 н/о н/о +20.3 +14.8 71 +24 +24 комфорт 1017.0 1010.5
16 18.06 Ю 5 н/о н/о +20.6 +15.8 74 +24 +24 комфорт 1017.0 1010.4
17 18.06 Ю 4
{7}
н/о н/о +19.6 +15.2 76 +22 +22 комфорт 1017.3 1010.7
18 18.06 С 2-6
{7}
н/о н/о +18.0 +16.1 89 +19 +19 1017.4 1010.7 +21.1 0.7
19 18.06 СВ 3
{6}
н/о н/о +16.8 +15.8 94 +17 +17 1017.3 1010.7
20 18.06 СВ 3
{5}
н/о н/о +17.6 +15.8 89 +18 +18 1017.5 1010.9
21 18.06 С 3
{5}
н/о н/о +16.7 +14.9 89 +16 +16 1017.4 1010.7 0.7
22 18.06 С 3 н/о н/о +16.1 +14.3 89 +16 +16 1017.7 1011.0
23 18.06 С 3 н/о н/о +16.2 +14.1 87 +16 +16 1018.0 1011.4
00 19.06 С 2 н/о н/о +16.2 +13.9 86 +16 +16 1018.2 1011.5
01 19.06 С 1 н/о н/о +16.3 +14.0 86 +17 +17 1018.0 1011.3
02 19.06 штиль 0 н/о н/о +17.5 +15.1 86 +17 +17 1017.7 1011.1
03 19.06 СЗ 2 н/о н/о +16.6 +15.0 90 +17 +17 1017.4 1010.7
04 19.06 СЗ 1 н/о н/о +16.7 +14.7 88 +18 +18 1017.3 1010.6
05 19.06 СВ 1 н/о н/о +17.0 +14.8 87 +18 +18 1017.3 1010.7
06 19.06 штиль 0 н/о н/о +17.5 +14.6 83 +17 +17 1017.4 1010.8 +16.0
07 19.06 С 1 н/о н/о +18.0 +15.4 85 +19 +19 1017.7 1011.0
08 19.06 З 2 н/о н/о +17.9 +16.2 90 +18 +18 1017.9 1011.3
09 19.06 Ю 1 н/о н/о +18.8 +15.8 83 +21 +21 комфорт 1018.3 1011.6
10 19.06 н/о н/о +19.9 +15.4 75 1018.3 1011.7
11 19.06 Ю 4 н/о н/о +20.8 +16.7 77 +24 +24 комфорт 1018.6 1012.0
12 19.06 Ю 6 н/о н/о +20.5 +16.8 79 +24 +24 комфорт 1018.6 1012.0
13 19.06 Ю 5
{8}
н/о н/о +21.3 +17.0 76 +25 +25 комфорт 1018.6 1012.0
14 19.06 Ю 5 н/о н/о +21.2 +17.3 78 +25 +25 комфорт 1018.5 1012.0
15 19.06 Ю 5-7
{8}
н/о н/о +20.7 +17.3 81 +24 +24 комфорт 1018.6 1012.0
16 19.06 -6
{6}
н/о н/о +21.7 +17.3 76 1018.6 1012.1
17 19.06 С 3-6
{7}
н/о н/о +22.0 +17.5 76 +27 +27 душно 1018.6 1012.1
18 19.06 С 2
{6}
н/о н/о +21.4 +17.7 79 +26 +26 душно 1018.5 1012.0 +22.2
19 19.06 ЮЗ 3
{5}
н/о н/о +21.4 +17.7 79 +26 +26 душно 1018.3 1011.7
20 19.06
{5}
н/о н/о +20.6 +17.4 82 1018.5 1011.9
21 19.06 ЮЗ 3
{5}
н/о н/о +19.6 +16.7 83 +22 +22 комфорт 1018.7 1012.1
22 19.06 З 3
{6}
н/о н/о +18.8 +16.4 86 +20 +20 1019.0 1012.4
23 19.06 З 2
{5}
н/о н/о +18.8 +16.4 86 +21 +21 комфорт 1019.5 1012.8
00 20.06 С 2
{5}
н/о н/о +19.2 +16.8 86 +21 +21 комфорт 1019.0 1012.4
01 20.06 -5
{6}
н/о н/о +19.3 +16.7 85 1018.8 1012.2
02 20.06 Ю 5-8
{8}
н/о н/о +19.0 +17.4 90 +20 +20 1017.9 1011.3 0.4
03 20.06 ЮЗ 3-7
{8}
н/о н/о +19.1 +17.7 92 +21 +21 комфорт 1017.7 1011.1 0.2
04 20.06 ЮЗ 4-8
{8}
н/о н/о +19.2 +17.9 92 +21 +21 комфорт 1017.0 1010.4
05 20.06 -7
{7}
н/о н/о +19.3 +18.2 93 1017.0 1010.4
06 20.06 С 2-6
{7}
н/о н/о +19.3 +18.1 93 +22 +22 комфорт 1016.7 1010.1 +18.5
07 20.06 Ю 3-7
{8}
н/о н/о +19.5 +18.4 93 +22 +22 комфорт 1016.3 1009.7
08 20.06 ЮЗ 3-8
{8}
н/о н/о +19.6 +18.2 92 +22 +22 комфорт 1016.5 1009.9
09 20.06 нст 3-6
{9}
н/о н/о +19.7 +18.1 90 1016.7 1010.1 0.3
10 20.06 Ю 4-9
{9}
н/о н/о +19.8 +18.5 92 +23 +23 комфорт 1016.3 1009.8
11 20.06 ЮЗ 4-9
{10}
н/о н/о +19.8 +18.3 91 +23 +23 комфорт 1016.1 1009.5
12 20.06 ЮЗ 6-12
{12}
н/о н/о +19.2 +18.3 95 +21 +21 комфорт 1015.9 1009.3 0.1
13 20.06 ЮЗ 4-7
{11}
н/о н/о +20.1 +19.1 94 +24 +24 комфорт 1016.1 1009.5
14 20.06 ЮЗ 4-7
{9}
н/о н/о +21.7 +18.2 80 +26 +26 душно 1016.1 1009.6
15 20.06 ЮЗ 7 н/о н/о +21.9 +16.8 73 +26 +26 душно 1015.6 1009.1
16 20.06
{11}
н/о н/о +22.9 +17.3 71 1015.7 1009.2
17 20.06 ЮВ 3-6
{7}
н/о н/о +21.4 +16.3 73 +25 +25 комфорт 1015.4 1008.9
18 20.06 С 1
{5}
н/о н/о +21.9 +16.7 72 +26 +26 душно 1015.7 1009.2 +23.5
19 20.06 С 1 н/о н/о +21.6 +15.6 69 +25 +25 комфорт 1015.6 1009.1
20 20.06 З 3-5
{5}
н/о н/о +20.0 +15.9 77 +23 +23 комфорт 1015.9 1009.3
21 20.06 З 4
{6}
н/о н/о +19.1 +15.6 80 +20 +20 1015.8 1009.2 0.1
22 20.06 ЮЗ 5 н/о н/о +18.8 +15.3 80 +20 +20 1015.9 1009.3
23 20.06 ЮЗ 5 н/о н/о +18.5 +14.4 77 +19 +19 1016.1 1009.5
00 21.06 З 2
{7}
н/о н/о +17.1 +14.2 83 +17 +17 1015.8 1009.2 0.2
01 21.06 ЮЗ 5 н/о н/о +18.5 +16.2 86 +19 +19 1015.5 1008.9 0.1
02 21.06
{6}
н/о н/о +18.2 +16.6 90 1014.3 1007.7 0.2
03 21.06 С 3-7
{7}
н/о н/о +19.0 +17.1 89 +21 +21 комфорт 1013.7 1007.1
04 21.06 Ю 4-7
{8}
н/о н/о +19.1 +17.4 90 +21 +21 комфорт 1012.5 1006.0
05 21.06 Ю 6-11
{11}
н/о н/о +19.5 +17.8 90 +21 +21 комфорт 1011.6 1005.0
06 21.06 Ю 6-12
{13}
н/о н/о +19.8 +18.6 93 +22 +22 комфорт 1010.3 1003.8 +16.9
07 21.06 ЮЗ 5-11
{12}
н/о н/о +19.7 +19.2 97 +22 +22 комфорт 1010.1 1003.6 5
08 21.06 ЮЗ 6-13
{14}
н/о н/о +19.9 +19.6 98 +23 +23 комфорт 1009.3 1002.8 4
09 21.06 ЮЗ 10 н/о н/о +19.7 +19.4 98 +22 +22 комфорт 1009.3 1002.8 0.8
10 21.06 ЮЗ 10
{15}
н/о н/о +19.8 +19.6 99 +22 +22 комфорт 1009.3 1002.8 0.1
11 21.06 З 8-13
{14}
н/о н/о +19.6 +19.3 98 +22 +22 комфорт 1009.8 1003.3 0.1
12 21.06 З 5-11
{15}
н/о н/о +20.0 +19.5 97 +23 +23 комфорт 1010.1 1003.6 0.1
13 21.06 З 9-16
{16}
н/о н/о +21.5 +19.0 86 +26 +26 душно 1010.3 1003.8
14 21.06 З 5-10
{12}
н/о н/о +22.6 +17.6 73 +28 +28 душно 1010.7 1004.2
15 21.06 З 7-13
{13}
н/о н/о +22.9 +16.6 68 +28 +28 душно 1011.0 1004.6
16 21.06 З 8-14
{15}
н/о н/о +22.8 +16.0 65 +27 +27 душно 1011.2 1004.7
17 21.06 З 9-15
{15}
н/о н/о +22.3 +14.6 62 +26 +26 жарко 1011.4 1004.9
18 21.06 З 7-12
{12}
н/о н/о +21.5 +14.0 62 +24 +24 комфорт 1011.7 1005.2 +24.0
19 21.06 З 6-12
{12}
н/о н/о +21.2 +13.7 62 +24 +24 комфорт 1012.0 1005.5
20 21.06 З 5-10
{10}
н/о н/о +19.9 +13.7 67 +22 +22 комфорт 1012.6 1006.1
21 21.06 З 4-7
{9}
н/о н/о +18.7 +13.3 71 +19 +19 1013.1 1006.5 0.3
22 21.06
{7}
н/о н/о +18.2 +13.3 73 1013.6 1007.0
23 21.06 н/о н/о +17.9 +13.6 76 1014.1 1007.5
00 22.06 С 1 н/о н/о +17.7 +13.8 78 +19 +19 1014.1 1007.5
01 22.06
{5}
н/о н/о +17.8 +14.1 79 1014.0 1007.4
02 22.06 ЮЗ 3-8
{7}
н/о н/о +18.2 +13.9 76 +19 +19 1013.7 1007.1
03 22.06 З 6
{9}
н/о н/о +18.4 +13.9 75 +18 +18 1013.3 1006.7
04 22.06 З 4-7
{9}
н/о н/о +18.5 +14.6 78 +19 +19 1013.2 1006.6
05 22.06 З 5-10
{10}
н/о н/о +18.8 +15.2 80 +20 +20 1013.2 1006.6
06 22.06 С 3-6
{10}
н/о н/о +18.3 +16.0 86 +19 +19 1013.1 1006.5 +17.7
07 22.06 З 4-9
{9}
н/о н/о +18.7 +16.0 84 +20 +20 1013.2 1006.6
08 22.06
{8}
н/о н/о +19.6 +15.8 79 1013.5 1007.0
09 22.06 З 4-9
{9}
н/о н/о +20.5 +15.4 73 +23 +23 комфорт 1013.8 1007.2
10 22.06 З 5-9
{10}
н/о н/о +21.7 +15.8 69 +25 +25 комфорт 1013.8 1007.2
11 22.06 З 7-10
{13}
н/о н/о +22.3 +15.8 67 +26 +26 жарко 1013.6 1007.1
12 22.06 З 7-11
{12}
н/о н/о +23.1 +15.9 64 +28 +28 душно 1013.7 1007.2
13 22.06 З 7-11
{13}
н/о н/о +21.8 +16.4 71 +26 +26 душно 1013.8 1007.3
14 22.06 З 7
{12}
н/о н/о +21.7 +17.4 77 +26 +26 душно 1013.4 1006.9
15 22.06 З 8 н/о н/о +21.9 +16.8 73 +26 +26 душно 1013.3 1006.8
16 22.06 ЮЗ 7
{11}
н/о н/о +20.7 +16.3 76 +24 +24 комфорт 1013.1 1006.5
17 22.06 ЮЗ 5
{9}
н/о н/о +20.6 +16.0 75 +24 +24 комфорт 1012.5 1006.0
18 22.06 ЮЗ 3-6
{7}
н/о н/о +20.5 +16.1 76 +24 +24 комфорт 1012.2 1005.7 +23.2
19 22.06 С 2
{5}
н/о н/о +20.4 +16.5 78 +24 +24 комфорт 1011.9 1005.3
20 22.06 С 1 н/о н/о +19.6 +16.2 81 +23 +23 комфорт 1011.8 1005.3
21 22.06 В 2 н/о н/о +19.2 +16.7 85 +21 +21 комфорт 1011.6 1005.1
22 22.06
{5}
н/о н/о +19.3 +15.8 80 1012.0 1005.4
23 22.06 СВ 3-5
{5}
н/о н/о +19.1 +15.8 81 +21 +21 комфорт 1012.4 1005.9
00 23.06 СВ 5
{8}
н/о н/о +19.0 +16.9 88 +20 +20 1012.4 1005.8
01 23.06 СВ 5-8
{8}
н/о н/о +18.5 +16.1 86 +19 +19 1012.7 1006.2
02 23.06 СВ 6 н/о н/о +18.2 +15.2 83 +18 +18 1012.8 1006.2
03 23.06 СВ 5-7
{9}
н/о н/о +17.9 +14.7 82 +17 +17 1013.1 1006.5
04 23.06 С 4-7
{8}
н/о н/о +17.6 +13.7 78 +17 +17 1013.3 1006.7
05 23.06 С 4-7
{9}
н/о н/о +17.4 +12.5 73 +17 +17 1013.6 1006.9
06 23.06 С 3-6
{8}
н/о н/о +17.7 +13.2 75 +18 +18 1014.0 1007.4 +17.4
07 23.06 С 4-7
{7}
н/о н/о +18.1 +11.9 67 +18 +18 1014.3 1007.7
08 23.06 С 4-7
{8}
н/о н/о +18.5 +11.6 64 +19 +19 1014.6 1008.0
09 23.06 СВ 4-7
{8}
н/о н/о +19.7 +12.2 62 +21 +21 комфорт 1015.2 1008.6
10 23.06 СВ 4-6
{8}
н/о н/о +20.3 +12.9 62 +22 +22 комфорт 1015.6 1009.0
11 23.06 С 4-7
{8}
н/о н/о +19.7 +13.4 67 +21 +21 комфорт 1015.7 1009.1
12 23.06 С 3-8
{8}
н/о н/о +21.3 +13.9 63 +24 +24 комфорт 1016.0 1009.4
13 23.06 С 5-8
{8}
н/о н/о +22.0 +12.9 56 +25 +25 комфорт 1016.1 1009.6
14 23.06 С 5-9
{9}
н/о н/о +22.3 +13.8 59 +25 +25 комфорт 1016.3 1009.8
15 23.06 С 4-8
{9}
н/о н/о +23.0 +13.8 56 +26 +26 жарко 1016.2 1009.7
16 23.06 С 5-9
{9}
н/о н/о +21.7 +13.2 58 +24 +24 комфорт 1016.3 1009.8
17 23.06 С 3-7
{10}
н/о н/о +22.5 +13.9 58 +26 +26 жарко 1016.5 1009.9
18 23.06 С 5-9
{10}
н/о н/о +22.3 +13.9 59 +25 +25 комфорт 1016.3 1009.8 +23.6
19 23.06 С 5-8
{10}
н/о н/о +20.4 +12.9 62 +22 +22 комфорт 1016.6 1010.1
20 23.06 С 4-7
{8}
н/о н/о +20.7 +13.5 63 +23 +23 комфорт 1017.1 1010.5
21 23.06 С 4-6
{7}
н/о н/о +18.5 +13.3 72 +19 +19 1017.5 1010.9
22 23.06 С 5 н/о н/о +17.7 +13.0 74 +17 +17 1018.3 1011.7
23 23.06 С 3
{7}
н/о н/о +17.2 +12.9 76 +17 +17 1018.9 1012.3
00 24.06 С 3
{5}
н/о н/о +16.7 +13.2 80 +16 +16 1019.0 1012.3
01 24.06 С 2 н/о н/о +16.5 +13.4 82 +17 +17 1019.0 1012.3
02 24.06 С 2 н/о н/о +16.3 +13.5 83 +16 +16 1018.9 1012.2
03 24.06 С 2 н/о н/о +16.2 +13.9 86 +16 +16 1018.6 1011.9
04 24.06 С 2 н/о н/о +16.6 +14.1 85 +17 +17 1018.4 1011.7
05 24.06 С 3 н/о н/о +16.5 +13.9 85 +16 +16 1018.5 1011.8
06 24.06 С 3
{5}
н/о н/о +16.3 +14.0 86 +16 +16 1018.8 1012.1 +16.0
07 24.06 С 2 н/о н/о +16.1 +13.4 84 +16 +16 1019.1 1012.4
08 24.06 С 2 н/о н/о +18.3 +13.9 76 +19 +19 1019.4 1012.8
09 24.06 СВ 4-7
{7}
н/о н/о +19.9 +14.4 71 +22 +22 комфорт 1019.9 1013.3
10 24.06 СВ 4-7
{7}
н/о н/о +21.1 +14.3 65 +24 +24 комфорт 1020.5 1013.9
11 24.06 СВ 4-7
{8}
н/о н/о +21.2 +14.4 65 +24 +24 комфорт 1020.5 1014.0
12 24.06 СВ 6-10
{10}
н/о н/о +20.9 +14.8 68 +24 +24 комфорт 1020.8 1014.2
13 24.06 СВ 5-9
{11}
н/о н/о +21.6 +13.9 62 +24 +24 комфорт 1021.2 1014.6
14 24.06 СВ 5-9
{10}
н/о н/о +21.9 +14.4 62 +25 +25 комфорт 1021.2 1014.7
15 24.06 СВ 5-9
{10}
н/о н/о +22.1 +14.7 63 +25 +25 комфорт 1021.6 1015.1
16 24.06 СВ 4-7
{8}
н/о н/о +22.3 +14.5 61 +26 +26 жарко 1021.7 1015.1
17 24.06 СВ 4-8
{8}
н/о н/о +22.1 +13.6 59 +25 +25 комфорт 1021.7 1015.1
18 24.06 СВ 5
{9}
н/о н/о +21.8 +14.2 62 +25 +25 комфорт 1021.7 1015.1 +22.5
19 24.06 СВ 5-8
{9}
н/о н/о +20.9 +13.6 63 +24 +24 комфорт 1021.8 1015.2
20 24.06 С 4-6
{8}
н/о н/о +20.5 +13.8 65 +23 +23 комфорт 1022.1 1015.5
21 24.06 С 4-6
{7}
н/о н/о +18.6 +14.0 75 +19 +19 1022.7 1016.1
22 24.06 С 3-5
{7}
н/о н/о +18.2 +14.6 80 +19 +19 1023.5 1016.8
23 24.06 СВ 5-8
{8}
н/о н/о +18.8 +13.9 73 +19 +19 1024.0 1017.4
00 25.06 СВ 5-8
{9}
н/о н/о +18.5 +12.2 67 +19 +19 1024.1 1017.5
01 25.06 СВ 5-8
{9}
н/о н/о +18.2 +12.2 68 +18 +18 1024.1 1017.5
02 25.06 СВ 3-6
{8}
н/о н/о +18.4 +13.2 72 +19 +19 1023.8 1017.2
03 25.06 СВ 5-9
{10}
н/о н/о +18.5 +13.7 74 +19 +19 1023.6 1016.9
04 25.06 СВ 5-8
{9}
н/о н/о +18.4 +13.3 72 +19 +19 1023.2 1016.6
05 25.06 СВ 3-7
{10}
н/о н/о +18.2 +12.3 68 +19 +19 1023.3 1016.6
06 25.06 СВ 4
{8}
н/о н/о +17.7 +12.1 70 +17 +17 1023.6 1017.0 +17.7
07 25.06 С 3
{7}
н/о н/о +17.8 +12.8 73 +18 +18 1024.0 1017.3

 

Местоположение метеостанции Орта (Португалия): широта 38.52 долгота -28.63 высота над уровнем моря 62 м.

В архиве по умолчанию представлена погода в Орте за последнюю неделю. Архивные данные за месяц целиком и за предыдущие месяцы, начиная с января 2011 года, Вы можете получить, выбрав интересующий диапазон дат из раскрывающегося списка и нажав кнопку "Ввод!".


*Определитесь, кто Вы:
робот инопланетянин человек

Внимание! Время в таблицах - всемирное. Для получения местного времени необходимо прибавить поправку, которая равна 0 ч.

Смотрите также архив погоды в соседних городах и на ближайших метеорологических станциях:

Погода в Каштелу-Бранку (Португалия) (7 км)
Погода в Пико (Португалия) (17 км)
Погода в Сан-Жоржи (Португалия) (43 км)
Погода на Острове Грасьоса (Португалия) (81 км)
Погода в Ангра-ду-Эроижму (Португалия) (125 км)
Погода в Аэропорту Лажеша (Португалия) (136 км)
Погода на Флошише (Португалия) (240 км)
Погода в Понта-Делгаде (Португалия) (271 км)
Погода в Санта-Марии (Португалия) (350 км)
Погода в Фуншале (Португалия) (1246 км)

Пояснения к столбцам:

Ветер - указаны скорость ветра в м/с - средняя за 10 мин, порывы в срок и между сроками (в фигурных скобках) и направление, откуда дует ветер: С - северный, СВ - северо-восточный, В - восточный, ЮВ - юго-восточный, Ю - южный, ЮЗ - юго-западный, З - западный, СЗ - северо-западный.
Видимость - горизонтальная дальность видимости в метрах или километрах. При видимости от 1 до 10 км при отсутствии осадков обычно наблюдается дымка, при ухудшении видимости до 1 км и менее - туман. В сухую погоду видимость может ухудшаться дымом, пылью или мглою.
Явления - указаны атмосферные явления, наблюдавшиеся в срок или в последний час перед сроком; фигурными скобками обозначены явления, наблюдавшиеся между сроками (за 1-3 часа до срока); квадратными скобками обозначены град или гололедные отложения с указанием их диаметра в мм.
Облачность - указаны через наклонную черту общая и нижняя облачность в баллах и высота нижней границы облаков в метрах; квадратными скобками обозначены формы облаков: Ci - перистые, Cs - перисто-слоистые, Cc - перисто-кучевые, Ac - высококучевые, As - высокослоистые, Sc - слоисто-кучевые, Ns - слоисто-дождевые, Cu - кучевые, Cb - кучево-дождевые. Подробнее классификацию облаков см. в Атласе облаков (PDF).
T - Температура воздуха - температура, измеренная на высоте 2 м над землей.
Td - Температура точки росы - температура, при понижении до которой содержащийся в воздухе водяной пар достигнет насыщения.
f - Относительная влажность воздуха - влажноcть воздуха, измеренная на высоте 2 м над землей.
Te - Эффективная температура - температура, которую ощущает одетый по сезону человек в тени. Характеристика душности погоды. При расчете учитывается влияние влажности воздуха и скорости ветра на теплоощущения человека.
Tes - Эффективная температура на солнце - температура, которую ощущает человек, с поправкой на солнечный нагрев. Характеристика знойности погоды. Зависит от высоты солнца над горизонтом, облачности и скорости ветра. Ночью, в пасмурную погоду, а также при ветре 12 м/с и более поправка равна нулю.
P - Атмосферное давление - приведенное к уровню моря атмосферное давление.
Po - Атмосферное давление - измеренное на уровне метеостанции атмосферное давление.
Tmin - Минимальная температура - минимум температуры воздуха на высоте 2 м над землей.
Tmax - Максимальная температура - максимум температуры воздуха на высоте 2 м над землей.
R - Количество осадков - Количество выпавших осадков за период времени, мм. При наведении курсора мыши на число - период времени, за который выпало указанное количество осадков.
R24 - Количество осадков - Количество выпавших осадков за 24 часа, мм.
S - Снежный покров - Высота снежного покрова, см. При наведении курсора мыши на число - состояние снежного покрова и степень покрытия местности в баллах.